Powrót do katalogu

STARLINK-31034

AktywnyŁącznośćVLEO
NORAD 58785·PAYLOAD·🇺🇸 United States

Wystrzelony Jan 14, 2024 z Vandenberg Space Force Base

Loading…

Następne Przeloty (najbliższe 24 godziny)

TLE

ŚwieżeSource: CelesTrak SupGP

Epoka: Sep 14, 2026, 21:32 UTC

1 58785C 24011W   26257.89770833 -.00029278  00000+0 -86519-3 0  2576
2 58785  53.1573 108.2468 0001221  83.5592 102.2553 15.34399723    11

Śledź STARLINK-31034 w czasie rzeczywistym z AllMySat

Download on the App Store